START_TIME,STEP,MOV.,M29,t_acc.,H22,t_acc.,H26,t_acc.,H30,t_acc.
1986-01-24 00:00:09.430 ,4,1,0.,24.0,0.,24.0,0.,24.0,0.,24.0
1986-01-24 00:00:33.430 ,4,0,0.,24.0,0.,24.0,0.,24.0,0.,24.0
1986-01-24 00:00:57.430 ,3,1,0.,24.0,0.,24.0,0.,24.0,0.,24.0
1986-01-24 00:01:21.430 ,3,0,0.,24.0,0.,24.0,0.,24.0,0.,24.0
1986-01-24 00:01:45.430 ,2,1,0.,24.0,0.,24.0,0.,24.0,0.,24.0
1986-01-24 00:02:09.430 ,2,0,0.,24.0,0.,24.0,0.,24.0,0.,24.0
1986-01-24 00:02:33.430 ,1,1,0.,24.0,0.,24.0,0.,24.0,0.,24.0
1986-01-24 00:02:57.430 ,1,0,0.,24.0,0.,24.0,0.,24.0,0.,24.0
1986-01-24 00:03:21.430 ,0,1,0.,24.0,0.,24.0,0.,24.0,0.,24.0
1986-01-24 00:03:45.430 ,0,0,0.,24.0,0.,24.0,0.,24.0,0.,24.0
1986-01-24 00:04:09.430 ,0,1,0.,24.0,0.,24.0,0.,24.0,0.,24.0
1986-01-24 00:04:33.430 ,0,0,0.,24.0,0.,24.0,0.,24.0,0.,24.0
1986-01-24 00:04:57.430 ,1,1,0.,24.0,0.,24.0,0.,24.0,0.,24.0
1986-01-24 00:05:21.430 ,1,0,0.,24.0,0.,24.0,0.,24.0,0.,24.0
1986-01-24 00:05:45.430 ,2,1,0.,24.0,0.,24.0,0.,24.0,0.,24.0
1986-01-24 00:06:09.430 ,2,0,0.,24.0,0.,24.0,0.,24.0,0.,24.0
1986-01-24 00:06:33.430 ,3,1,0.,24.0,0.,24.0,0.,24.0,0.,24.0
1986-01-24 00:06:57.430 ,3,0,0.,24.0,0.,24.0,0.,24.0,0.,24.0
1986-01-24 00:07:21.430 ,4,1,0.,24.0,0.,24.0,0.,24.0,0.,24.0
1986-01-24 00:07:45.430 ,4,0,0.,24.0,0.,24.0,0.,24.0,0.,24.0
1986-01-24 00:08:09.430 ,5,1,0.,24.0,0.,24.0,0.,24.0,0.,24.0
1986-01-24 00:08:33.430 ,5,0,0.,24.0,0.,24.0,0.,24.0,0.,24.0
1986-01-24 00:08:57.430 ,6,1,0.,24.0,0.,24.0,0.,24.0,0.,24.0
1986-01-24 00:09:21.430 ,6,0,0.,24.0,0.,24.0,0.,24.0,0.,24.0
1986-01-24 00:09:45.430 ,7,1,0.,24.0,0.,24.0,0.,24.0,0.,24.0
1986-01-24 00:10:09.430 ,7,0,0.,24.0,0.,24.0,0.,24.0,0.,24.0
1986-01-24 00:10:33.430 ,7,1,0.,24.0,0.,24.0,0.,24.0,0.,24.0
1986-01-24 00:10:57.430 ,7,0,0.,24.0,0.,24.0,0.,24.0,0.,24.0
1986-01-24 00:11:21.430 ,6,1,0.,24.0,0.,24.0,0.,24.0,0.,24.0
1986-01-24 00:11:45.430 ,6,0,0.,24.0,0.,24.0,0.,24.0,0.,24.0
1986-01-24 00:12:09.430 ,5,1,0.,24.0,0.,24.0,0.,24.0,0.,24.0
1986-01-24 00:12:33.430 ,5,0,0.,24.0,0.,24.0,0.,24.0,0.,24.0
1986-01-24 00:12:57.430 ,4,1,0.,24.0,0.,24.0,0.,24.0,0.,24.0
1986-01-24 00:13:21.430 ,4,0,0.,24.0,0.,24.0,0.,24.0,0.,24.0
1986-01-24 00:13:45.430 ,3,1,0.,24.0,0.,24.0,0.,24.0,0.,24.0
1986-01-24 00:14:09.430 ,3,0,0.,24.0,0.,24.0,0.,24.0,0.,24.0
1986-01-24 00:14:33.430 ,2,1,0.,24.0,0.,24.0,0.,24.0,0.,24.0
1986-01-24 00:14:57.430 ,2,0,0.,24.0,0.,24.0,0.,24.0,0.,24.0
1986-01-24 00:15:21.430 ,1,1,0.,24.0,0.,24.0,0.,24.0,0.,24.0
1986-01-24 00:15:45.430 ,1,0,0.,24.0,0.,24.0,0.,24.0,0.,24.0
1986-01-24 00:16:09.430 ,0,1,0.,24.0,0.,24.0,0.,24.0,0.,24.0
1986-01-24 00:16:33.430 ,0,0,0.,24.0,0.,24.0,0.,24.0,0.,24.0
1986-01-24 00:16:57.430 ,0,1,0.,24.0,0.,24.0,0.,24.0,0.,24.0
1986-01-24 00:17:21.430 ,0,0,0.,24.0,0.,24.0,0.,24.0,0.,24.0
1986-01-24 00:17:45.430 ,1,1,0.,24.0,0.,24.0,0.,24.0,0.,24.0
1986-01-24 00:18:09.430 ,1,0,0.,24.0,0.,24.0,0.,24.0,0.,24.0
1986-01-24 00:18:33.430 ,2,1,0.,24.0,0.,24.0,0.,24.0,0.,24.0
1986-01-24 00:18:57.430 ,2,0,0.,24.0,0.,24.0,0.,24.0,0.,24.0
1986-01-24 00:19:21.430 ,3,1,0.,24.0,0.,24.0,0.,24.0,0.,24.0
1986-01-24 00:19:45.430 ,3,0,0.,24.0,0.,24.0,0.,24.0,0.,24.0
1986-01-24 00:20:09.430 ,4,1,0.,24.0,0.,24.0,0.,24.0,0.,24.0
1986-01-24 00:20:33.430 ,4,0,0.,24.0,0.,24.0,0.,24.0,0.,24.0
1986-01-24 00:20:57.430 ,5,1,0.,24.0,0.,24.0,0.,24.0,0.,24.0
1986-01-24 00:21:21.430 ,5,0,0.,24.0,0.,24.0,0.,24.0,0.,24.0
1986-01-24 00:21:45.430 ,6,1,0.,24.0,0.,24.0,0.,24.0,0.,24.0
1986-01-24 00:22:09.430 ,6,0,0.,24.0,0.,24.0,0.,24.0,0.,24.0
1986-01-24 00:22:33.430 ,7,1,0.,24.0,0.,24.0,0.,24.0,0.,24.0
1986-01-24 00:22:57.430 ,7,0,0.,24.0,0.,24.0,0.,24.0,0.,24.0
1986-01-24 00:23:21.430 ,7,1,0.,24.0,0.,24.0,0.,24.0,0.,24.0
1986-01-24 00:23:45.430 ,7,0,0.,24.0,0.,24.0,0.,24.0,0.,24.0
1986-01-24 00:24:09.430 ,6,1,0.,24.0,0.,24.0,0.,24.0,0.,24.0
1986-01-24 00:24:33.430 ,6,0,0.,24.0,0.,24.0,0.,24.0,0.,24.0
1986-01-24 00:24:57.430 ,5,1,0.,24.0,0.,24.0,0.,24.0,0.,24.0
1986-01-24 00:25:21.430 ,5,0,0.,24.0,0.,24.0,0.,24.0,0.,24.0
1986-01-24 00:25:45.430 ,4,1,0.,24.0,0.,24.0,0.,24.0,0.,24.0
1986-01-24 00:26:09.430 ,4,0,0.,24.0,0.,24.0,0.,24.0,0.,24.0
1986-01-24 00:26:33.430 ,3,1,0.,24.0,0.,24.0,0.,24.0,0.,24.0
1986-01-24 00:26:57.430 ,3,0,0.,24.0,0.,24.0,0.,24.0,0.,24.0
1986-01-24 00:27:21.430 ,2,1,0.,24.0,0.,24.0,0.,24.0,0.,24.0
1986-01-24 00:27:45.430 ,2,0,0.,24.0,0.,24.0,0.,24.0,0.,24.0
1986-01-24 00:28:09.430 ,1,1,0.,24.0,0.,24.0,0.,24.0,0.,24.0
1986-01-24 00:28:33.430 ,1,0,0.,24.0,0.,24.0,0.,24.0,0.,24.0
1986-01-24 00:28:57.430 ,0,1,0.,24.0,0.,24.0,0.,24.0,0.,24.0
1986-01-24 00:29:21.430 ,0,0,0.,24.0,0.,24.0,0.,24.0,0.,24.0
1986-01-24 00:29:45.430 ,0,1,0.,24.0,0.,24.0,0.,24.0,0.,24.0
1986-01-24 00:30:09.430 ,0,0,0.,24.0,0.,24.0,0.,24.0,0.,24.0
1986-01-24 00:30:33.430 ,1,1,0.,24.0,0.,24.0,0.,24.0,0.,24.0
1986-01-24 00:30:57.430 ,1,0,0.,24.0,0.,24.0,0.,24.0,0.,24.0
1986-01-24 00:31:21.430 ,2,1,0.,24.0,0.,24.0,0.,24.0,0.,24.0
1986-01-24 00:31:45.430 ,2,0,0.,24.0,0.,24.0,0.,24.0,0.,24.0
1986-01-24 00:32:09.430 ,3,1,0.,24.0,0.,24.0,0.,24.0,0.,24.0
1986-01-24 00:32:33.430 ,3,0,0.,24.0,0.,24.0,0.,24.0,0.,24.0
1986-01-24 00:32:57.430 ,4,1,0.,24.0,0.,24.0,0.,24.0,0.,24.0
1986-01-24 00:33:21.430 ,4,0,0.,24.0,0.,24.0,0.,24.0,0.,24.0
1986-01-24 00:33:45.430 ,5,1,0.,24.0,0.,24.0,0.,24.0,0.,24.0
1986-01-24 00:34:09.430 ,5,0,0.,24.0,0.,24.0,0.,24.0,0.,24.0
1986-01-24 00:34:33.430 ,6,1,0.,24.0,0.,24.0,0.,24.0,0.,24.0
1986-01-24 00:34:57.430 ,6,0,0.,24.0,0.,24.0,0.,24.0,0.,24.0
1986-01-24 00:35:21.430 ,7,1,0.,24.0,0.,24.0,0.,24.0,0.,24.0
1986-01-24 00:35:45.430 ,7,0,0.,24.0,0.,24.0,0.,24.0,0.,24.0
1986-01-24 00:36:09.430 ,7,1,0.,24.0,0.,24.0,0.,24.0,0.,24.0
1986-01-24 00:36:33.430 ,7,0,0.,24.0,0.,24.0,0.,24.0,0.,24.0
1986-01-24 00:36:57.430 ,6,1,0.,24.0,0.,24.0,0.,24.0,0.,24.0
1986-01-24 00:37:21.430 ,6,0,0.,24.0,0.,24.0,0.,24.0,0.,24.0
1986-01-24 00:37:45.430 ,5,1,0.,24.0,0.,24.0,0.,24.0,0.,24.0
1986-01-24 00:38:09.430 ,5,0,0.,24.0,0.,24.0,0.,24.0,0.,24.0
1986-01-24 00:38:33.430 ,4,1,0.,24.0,0.,24.0,0.,24.0,0.,24.0
1986-01-24 00:38:57.430 ,4,0,0.,24.0,0.,24.0,0.,24.0,0.,24.0
1986-01-24 00:41:37.030 ,2,0,,0,,0,,0,,0
1986-01-24 00:41:48.430 ,1,1,0.,24.0,0.,24.0,0.,24.0,0.,24.0
1986-01-24 00:42:09.430 ,1,0,0.,24.0,0.,24.0,0.,24.0,0.,24.0
1986-01-24 00:42:33.430 ,0,1,0.,24.0,0.,24.0,0.,24.0,0.,24.0
1986-01-24 00:42:57.430 ,0,0,0.,24.0,0.,24.0,0.,24.0,0.,24.0
1986-01-24 00:43:21.430 ,1,1,0.,24.0,0.,24.0,0.,24.0,0.,24.0
1986-01-24 00:43:45.430 ,1,0,0.,24.0,0.,24.0,0.,24.0,0.,24.0
1986-01-24 00:44:09.430 ,2,1,0.,24.0,0.,24.0,0.,24.0,0.,24.0
1986-01-24 00:44:33.430 ,2,0,0.,24.0,0.,24.0,0.,24.0,0.,24.0
1986-01-24 00:44:57.430 ,3,1,0.,24.0,0.,24.0,0.,24.0,0.,24.0
1986-01-24 00:45:21.430 ,3,0,0.,24.0,0.,24.0,0.,24.0,0.,24.0
1986-01-24 00:45:45.430 ,4,1,0.,24.0,0.,24.0,0.,24.0,0.,24.0
1986-01-24 00:46:09.430 ,4,0,0.,24.0,0.,24.0,0.,24.0,0.,24.0
1986-01-24 00:46:33.430 ,5,1,0.,24.0,0.,24.0,0.,24.0,0.,24.0
1986-01-24 00:46:57.430 ,5,0,0.,24.0,0.,24.0,0.,24.0,0.,24.0
1986-01-24 00:47:21.430 ,6,1,0.,24.0,0.,24.0,0.,24.0,0.,24.0
1986-01-24 00:47:45.430 ,6,0,0.,24.0,0.,24.0,0.,24.0,0.,24.0
1986-01-24 00:48:09.430 ,7,1,0.,24.0,0.,24.0,0.,24.0,0.,24.0
1986-01-24 00:48:33.430 ,7,0,0.,24.0,0.,24.0,0.,24.0,0.,24.0
1986-01-24 00:48:57.430 ,7,1,0.,24.0,0.,24.0,0.,24.0,0.,24.0
1986-01-24 00:49:21.430 ,7,0,0.,24.0,0.,24.0,0.,24.0,0.,24.0
1986-01-24 00:49:45.430 ,6,1,0.,24.0,0.,24.0,0.,24.0,0.,24.0
1986-01-24 00:50:09.430 ,6,0,0.,24.0,0.,24.0,0.,24.0,0.,24.0
1986-01-24 00:50:33.430 ,5,1,0.,24.0,0.,24.0,0.,24.0,0.,24.0
1986-01-24 00:50:57.430 ,5,0,0.,24.0,0.,24.0,0.,24.0,0.,24.0
1986-01-24 00:51:21.430 ,4,1,0.,24.0,0.,24.0,0.,24.0,0.,24.0
1986-01-24 00:51:45.430 ,4,0,0.,24.0,0.,24.0,0.,24.0,0.,24.0
1986-01-24 00:52:09.430 ,3,1,0.,24.0,0.,24.0,0.,24.0,0.,24.0
1986-01-24 00:52:33.430 ,3,0,0.,24.0,0.,24.0,0.,24.0,0.,24.0
1986-01-24 00:52:57.430 ,2,1,0.,24.0,0.,24.0,0.,24.0,0.,24.0
1986-01-24 00:53:21.430 ,2,0,0.,24.0,0.,24.0,0.,24.0,0.,24.0
1986-01-24 00:53:45.430 ,1,1,0.,24.0,0.,24.0,0.,24.0,0.,24.0
1986-01-24 00:54:09.430 ,1,0,0.,24.0,0.,24.0,0.,24.0,0.,24.0
1986-01-24 00:54:33.430 ,0,1,0.,24.0,0.,24.0,0.,24.0,0.,24.0
1986-01-24 00:54:57.430 ,0,0,0.,24.0,0.,24.0,0.,24.0,0.,24.0
1986-01-24 00:55:21.430 ,0,1,0.,24.0,0.,24.0,0.,24.0,0.,24.0
1986-01-24 00:55:45.430 ,0,0,0.,24.0,0.,24.0,0.,24.0,0.,24.0
1986-01-24 00:56:09.430 ,1,1,0.,24.0,0.,24.0,0.,24.0,0.,24.0
1986-01-24 00:56:33.430 ,1,0,0.,24.0,0.,24.0,0.,24.0,0.,24.0
1986-01-24 00:56:57.430 ,2,1,0.,24.0,0.,24.0,0.,24.0,0.,24.0
1986-01-24 00:57:21.430 ,2,0,0.,24.0,0.,24.0,0.,24.0,0.,24.0
1986-01-24 00:57:45.430 ,3,1,0.,24.0,0.,24.0,0.,24.0,0.,24.0
1986-01-24 00:58:09.430 ,3,0,0.,24.0,0.,24.0,0.,24.0,0.,24.0
1986-01-24 00:58:33.430 ,4,1,0.,24.0,0.,24.0,0.,24.0,0.,24.0
1986-01-24 00:58:57.430 ,4,0,0.,24.0,0.,24.0,0.,24.0,0.,24.0
1986-01-24 00:59:21.430 ,5,1,0.,24.0,0.,24.0,0.,24.0,0.,24.0
1986-01-24 00:59:45.430 ,5,0,0.,24.0,0.,24.0,0.,24.0,0.,24.0
1986-01-24 01:00:09.430 ,6,1,0.,24.0,0.,24.0,0.,24.0,0.,24.0
1986-01-24 01:00:33.430 ,6,0,0.,24.0,0.,24.0,0.,24.0,0.,24.0
1986-01-24 01:00:57.430 ,7,1,0.,24.0,0.,24.0,0.,24.0,0.,24.0
1986-01-24 01:01:21.430 ,7,0,0.,24.0,0.,24.0,0.,24.0,0.,24.0
1986-01-24 01:01:45.430 ,7,1,0.,24.0,0.,24.0,0.,24.0,0.,24.0
1986-01-24 01:02:09.430 ,7,0,0.,24.0,0.,24.0,0.,24.0,0.,24.0
1986-01-24 01:02:33.430 ,6,1,0.,24.0,0.,24.0,0.,24.0,0.,24.0
1986-01-24 01:02:57.430 ,6,0,0.,24.0,0.,24.0,0.,24.0,0.,24.0
1986-01-24 01:03:21.430 ,5,1,0.,24.0,0.,24.0,0.,24.0,0.,24.0
1986-01-24 01:03:45.430 ,5,0,0.,24.0,0.,24.0,0.,24.0,0.,24.0
1986-01-24 01:04:09.430 ,4,1,0.,24.0,0.,24.0,0.,24.0,0.,24.0
1986-01-24 01:04:33.430 ,4,0,0.,24.0,0.,24.0,0.,24.0,0.,24.0
1986-01-24 01:04:57.430 ,3,1,0.,24.0,0.,24.0,0.,24.0,0.,24.0
1986-01-24 01:05:21.430 ,3,0,0.,24.0,0.,24.0,0.,24.0,0.,24.0
1986-01-24 01:05:45.430 ,2,1,0.,24.0,0.,24.0,0.,24.0,0.,24.0
1986-01-24 01:06:09.430 ,2,0,0.,24.0,0.,24.0,0.,24.0,0.,24.0
1986-01-24 01:06:33.430 ,1,1,0.,24.0,0.,24.0,0.,24.0,0.,24.0
1986-01-24 01:06:57.430 ,1,0,0.,24.0,0.,24.0,0.,24.0,0.,24.0
1986-01-24 01:07:21.430 ,0,1,0.,24.0,0.,24.0,0.,24.0,0.,24.0
1986-01-24 01:07:45.430 ,0,0,0.,24.0,0.,24.0,0.,24.0,0.,24.0
1986-01-24 01:08:09.430 ,0,1,0.,24.0,0.,24.0,0.,24.0,0.,24.0
1986-01-24 01:08:33.430 ,0,0,0.,24.0,0.,24.0,0.,24.0,0.,24.0
1986-01-24 01:08:57.430 ,1,1,0.,24.0,0.,24.0,0.,24.0,0.,24.0
1986-01-24 01:09:21.430 ,1,0,0.,24.0,0.,24.0,0.,24.0,0.,24.0
1986-01-24 01:09:45.430 ,2,1,0.,24.0,0.,24.0,0.,24.0,0.,24.0
1986-01-24 01:10:09.430 ,2,0,0.,24.0,0.,24.0,0.,24.0,0.,24.0
1986-01-24 01:10:33.430 ,3,1,0.,24.0,0.,24.0,0.,24.0,0.,24.0
1986-01-24 01:10:57.430 ,3,0,0.,24.0,0.,24.0,0.,24.0,0.,24.0
1986-01-24 01:11:21.430 ,4,1,0.,24.0,0.,24.0,0.,24.0,0.,24.0
1986-01-24 01:11:45.430 ,4,0,0.,24.0,0.,24.0,0.,24.0,0.,24.0
1986-01-24 01:12:09.430 ,5,1,0.,24.0,0.,24.0,0.,24.0,0.,24.0
1986-01-24 01:12:33.430 ,5,0,0.,24.0,0.,24.0,0.,24.0,0.,24.0
1986-01-24 01:12:57.430 ,6,1,0.,24.0,0.,24.0,0.,24.0,0.,24.0
1986-01-24 01:13:21.430 ,6,0,0.,24.0,0.,24.0,0.,24.0,0.,24.0
1986-01-24 01:13:45.430 ,7,1,0.,24.0,0.,24.0,0.,24.0,0.,24.0
1986-01-24 01:14:09.430 ,7,0,0.,24.0,0.,24.0,0.,24.0,0.,24.0
1986-01-24 01:14:33.430 ,7,1,0.,24.0,0.,24.0,0.,24.0,0.,24.0
1986-01-24 01:14:57.430 ,7,0,0.,24.0,0.,24.0,0.,24.0,0.,24.0
1986-01-24 01:15:21.430 ,6,1,0.,24.0,0.,24.0,0.,24.0,0.,24.0
1986-01-24 01:15:45.430 ,6,0,0.,24.0,0.,24.0,0.,24.0,0.,24.0
1986-01-24 01:16:09.430 ,5,1,0.,24.0,0.,24.0,0.,24.0,0.,24.0
1986-01-24 01:16:33.430 ,5,0,0.,24.0,0.,24.0,0.,24.0,0.,24.0
1986-01-24 01:16:57.430 ,4,1,0.,24.0,0.,24.0,0.,24.0,0.,24.0
1986-01-24 01:17:21.430 ,4,0,0.,24.0,0.,24.0,0.,24.0,0.,24.0
1986-01-24 01:20:59.830 ,0,0,,0,,0,,0,,0
1986-01-24 01:21:31.030 ,0,0,,0,,0,,0,,0
1986-01-24 01:21:45.430 ,1,1,0.,24.0,0.,24.0,0.,24.0,0.,24.0
1986-01-24 01:22:09.430 ,1,0,0.,24.0,0.,24.0,0.,24.0,0.,24.0
1986-01-24 01:22:33.430 ,2,1,0.,24.0,0.,24.0,0.,24.0,0.,24.0
1986-01-24 01:22:57.430 ,2,0,0.,24.0,0.,24.0,0.,24.0,0.,24.0
1986-01-24 01:23:21.430 ,3,1,0.,24.0,0.,24.0,0.,24.0,0.,24.0
1986-01-24 01:23:45.430 ,3,0,0.,24.0,0.,24.0,0.,24.0,0.,24.0
1986-01-24 01:24:09.430 ,4,1,0.,24.0,0.,24.0,0.,24.0,0.,24.0
1986-01-24 01:24:33.430 ,4,0,0.,24.0,0.,24.0,0.,24.0,0.,24.0
1986-01-24 01:24:57.430 ,5,1,0.,24.0,0.,24.0,0.,24.0,0.,24.0
1986-01-24 01:25:45.430 ,6,1,0.,24.0,0.,24.0,0.,24.0,0.,24.0
1986-01-24 01:26:09.430 ,6,0,0.,24.0,0.,24.0,0.,24.0,0.,24.0
1986-01-24 01:26:33.430 ,7,1,0.,24.0,0.,24.0,0.,24.0,0.,24.0
1986-01-24 01:26:57.430 ,7,0,0.,24.0,0.,24.0,0.,24.0,0.,24.0
1986-01-24 01:27:21.430 ,7,1,0.,24.0,0.,24.0,0.,24.0,0.,24.0
1986-01-24 01:27:45.430 ,7,0,0.,24.0,0.,24.0,0.,24.0,0.,24.0
1986-01-24 01:28:09.430 ,6,1,0.,24.0,0.,24.0,0.,24.0,0.,24.0
1986-01-24 01:28:33.430 ,6,0,0.,24.0,0.,24.0,0.,24.0,0.,24.0
1986-01-24 01:28:57.430 ,5,1,0.,24.0,0.,24.0,0.,24.0,0.,24.0
1986-01-24 01:29:21.430 ,5,0,0.,24.0,0.,24.0,0.,24.0,0.,24.0
1986-01-24 01:29:45.430 ,4,1,0.,24.0,0.,24.0,0.,24.0,0.,24.0
1986-01-24 01:30:09.430 ,4,0,0.,24.0,0.,24.0,0.,24.0,0.,24.0
1986-01-24 01:30:33.430 ,3,1,0.,24.0,0.,24.0,0.,24.0,0.,24.0
1986-01-24 01:30:57.430 ,3,0,0.,24.0,0.,24.0,0.,24.0,0.,24.0
1986-01-24 01:31:21.430 ,2,1,0.,24.0,0.,24.0,0.,24.0,0.,24.0
1986-01-24 01:31:45.430 ,2,0,0.,24.0,0.,24.0,0.,24.0,0.,24.0
1986-01-24 01:32:09.430 ,1,1,0.,24.0,0.,24.0,0.,24.0,0.,24.0
1986-01-24 01:32:33.430 ,1,0,0.,24.0,0.,24.0,0.,24.0,0.,24.0
1986-01-24 01:32:57.430 ,0,1,0.,24.0,0.,24.0,0.,24.0,0.,24.0
1986-01-24 01:33:21.430 ,0,0,0.,24.0,0.,24.0,0.,24.0,0.,24.0
1986-01-24 01:33:45.430 ,0,1,0.,24.0,0.,24.0,0.,24.0,0.,24.0
1986-01-24 01:34:09.430 ,0,0,0.,24.0,0.,24.0,0.,24.0,0.,24.0
1986-01-24 01:34:33.430 ,1,1,0.,24.0,0.,24.0,0.,24.0,0.,24.0
1986-01-24 01:34:57.430 ,1,0,0.,24.0,0.,24.0,0.,24.0,0.,24.0
1986-01-24 01:35:21.430 ,2,1,0.,24.0,0.,24.0,0.,24.0,0.,24.0
1986-01-24 01:35:45.430 ,2,0,0.,24.0,0.,24.0,0.,24.0,0.,24.0
1986-01-24 01:36:09.430 ,3,1,0.,24.0,0.,24.0,0.,24.0,0.,24.0
1986-01-24 01:36:33.430 ,3,0,0.,24.0,0.,24.0,0.,24.0,0.,24.0
1986-01-24 01:36:57.430 ,4,1,0.,24.0,0.,24.0,0.,24.0,0.,24.0
1986-01-24 01:37:21.430 ,4,0,0.,24.0,0.,24.0,0.,24.0,0.,24.0
1986-01-24 01:37:45.430 ,5,1,0.,24.0,0.,24.0,0.,24.0,0.,24.0
1986-01-24 01:38:09.430 ,5,0,0.,24.0,0.,24.0,0.,24.0,0.,24.0
1986-01-24 01:38:33.430 ,6,1,0.,24.0,0.,24.0,0.,24.0,0.,24.0
1986-01-24 01:38:57.430 ,6,0,0.,24.0,0.,24.0,0.,24.0,0.,24.0
1986-01-24 01:39:21.430 ,7,1,0.,24.0,0.,24.0,0.,24.0,0.,24.0
1986-01-24 01:39:45.430 ,7,0,0.,24.0,0.,24.0,0.,24.0,0.,24.0
1986-01-24 01:40:09.430 ,7,1,0.,24.0,0.,24.0,0.,24.0,0.,24.0
1986-01-24 01:40:33.430 ,7,0,0.,24.0,0.,24.0,0.,24.0,0.,24.0
1986-01-24 01:40:57.430 ,6,1,0.,24.0,0.,24.0,0.,24.0,0.,24.0
1986-01-24 01:41:21.430 ,6,0,0.,24.0,0.,24.0,0.,24.0,0.,24.0
1986-01-24 01:41:45.430 ,5,1,0.,24.0,0.,24.0,0.,24.0,0.,24.0
1986-01-24 01:42:09.430 ,5,0,0.,24.0,0.,24.0,0.,24.0,0.,24.0
1986-01-24 01:42:33.430 ,4,1,0.,24.0,0.,24.0,0.,24.0,0.,24.0
1986-01-24 01:42:57.430 ,4,0,0.,24.0,0.,24.0,0.,24.0,0.,24.0
1986-01-24 01:43:21.430 ,3,1,0.,24.0,0.,24.0,0.,24.0,0.,24.0
1986-01-24 01:43:45.430 ,3,0,0.,24.0,0.,24.0,0.,24.0,0.,24.0
1986-01-24 01:44:09.430 ,2,1,0.,24.0,0.,24.0,0.,24.0,0.,24.0
1986-01-24 01:44:33.430 ,2,0,0.,24.0,0.,24.0,0.,24.0,0.,24.0
1986-01-24 01:44:57.430 ,1,1,0.,24.0,0.,24.0,0.,24.0,0.,24.0
1986-01-24 01:45:21.430 ,1,0,0.,24.0,0.,24.0,0.,24.0,0.,24.0
1986-01-24 01:45:45.430 ,0,1,0.,24.0,0.,24.0,0.,24.0,0.,24.0
1986-01-24 01:46:09.430 ,0,0,0.,24.0,0.,24.0,0.,24.0,0.,24.0
1986-01-24 01:46:33.430 ,0,1,0.,24.0,0.,24.0,0.,24.0,0.,24.0
1986-01-24 01:46:57.430 ,0,0,0.,24.0,0.,24.0,0.,24.0,0.,24.0
1986-01-24 01:47:21.430 ,1,1,0.,24.0,0.,24.0,0.,24.0,0.,24.0
1986-01-24 01:47:45.430 ,1,0,0.,24.0,0.,24.0,0.,24.0,0.,24.0
1986-01-24 01:48:09.430 ,2,1,0.,24.0,0.,24.0,0.,24.0,0.,24.0
1986-01-24 01:48:33.430 ,2,0,0.,24.0,0.,24.0,0.,24.0,0.,24.0
1986-01-24 01:48:57.430 ,3,1,0.,24.0,0.,24.0,0.,24.0,0.,24.0
1986-01-24 01:49:21.430 ,3,0,0.,24.0,0.,24.0,0.,24.0,0.,24.0
1986-01-24 01:49:45.430 ,4,1,0.,24.0,0.,24.0,0.,24.0,0.,24.0
1986-01-24 01:50:09.430 ,4,0,0.,24.0,0.,24.0,0.,24.0,0.,24.0
1986-01-24 01:50:33.430 ,5,1,0.,24.0,0.,24.0,0.,24.0,0.,24.0
1986-01-24 01:50:57.430 ,5,0,0.,24.0,0.,24.0,0.,24.0,0.,24.0
1986-01-24 01:51:21.430 ,6,1,0.,24.0,0.,24.0,0.,24.0,0.,24.0
1986-01-24 01:51:45.430 ,6,0,0.,24.0,0.,24.0,0.,24.0,0.,24.0
1986-01-24 01:52:09.430 ,7,1,0.,24.0,0.,24.0,0.,24.0,0.,24.0
1986-01-24 01:52:33.430 ,7,0,0.,24.0,0.,24.0,0.,24.0,0.,24.0
1986-01-24 01:52:57.430 ,7,1,0.,24.0,0.,24.0,0.,24.0,0.,24.0
1986-01-24 01:53:21.430 ,7,0,0.,24.0,0.,24.0,0.,24.0,0.,24.0
1986-01-24 01:53:45.430 ,6,1,0.,24.0,0.,24.0,0.,24.0,0.,24.0
1986-01-24 01:54:09.430 ,6,0,0.,24.0,0.,24.0,0.,24.0,0.,24.0
1986-01-24 01:54:33.430 ,5,1,0.,24.0,0.,24.0,0.,24.0,0.,24.0
1986-01-24 01:54:57.430 ,5,0,0.,24.0,0.,24.0,0.,24.0,0.,24.0
1986-01-24 01:55:21.430 ,4,1,0.,24.0,0.,24.0,0.,24.0,0.,24.0
1986-01-24 01:55:45.430 ,4,0,0.,24.0,0.,24.0,0.,24.0,0.,24.0
1986-01-24 01:56:09.430 ,3,1,0.,24.0,0.,24.0,0.,24.0,0.,24.0
1986-01-24 01:56:33.430 ,3,0,0.,24.0,0.,24.0,0.,24.0,0.,24.0
1986-01-24 01:56:57.430 ,2,1,0.,24.0,0.,24.0,0.,24.0,0.,24.0
1986-01-24 01:57:21.430 ,2,0,0.,24.0,0.,24.0,0.,24.0,0.,24.0
1986-01-24 01:57:45.430 ,1,1,0.,24.0,0.,24.0,0.,24.0,0.,24.0
1986-01-24 01:58:09.430 ,1,0,0.,24.0,0.,24.0,0.,24.0,0.,24.0
1986-01-24 01:58:33.430 ,0,1,0.,24.0,0.,24.0,0.,24.0,0.,24.0
1986-01-24 01:58:57.430 ,0,0,0.,24.0,0.,24.0,0.,24.0,0.,24.0
1986-01-24 01:59:21.430 ,0,1,0.,24.0,0.,24.0,0.,24.0,0.,24.0
1986-01-24 01:59:45.430 ,0,0,0.,24.0,0.,24.0,0.,24.0,0.,24.0
1986-01-24 02:00:09.430 ,1,1,0.,24.0,0.,24.0,0.,24.0,0.,24.0
1986-01-24 02:00:33.430 ,1,0,0.,24.0,0.,24.0,0.,24.0,0.,24.0
1986-01-24 02:00:57.430 ,2,1,0.,24.0,0.,24.0,0.,24.0,0.,24.0
1986-01-24 02:01:21.430 ,2,0,0.,24.0,0.,24.0,0.,24.0,0.,24.0
1986-01-24 02:01:45.430 ,3,1,0.,24.0,0.,24.0,0.,24.0,0.,24.0
1986-01-24 02:02:09.430 ,3,0,0.,24.0,0.,24.0,0.,24.0,0.,24.0
1986-01-24 02:02:33.430 ,4,1,0.,24.0,0.,24.0,0.,24.0,0.,24.0
1986-01-24 02:02:57.430 ,4,0,0.,24.0,0.,24.0,0.,24.0,0.,24.0
1986-01-24 02:03:21.430 ,5,1,0.,24.0,0.,24.0,0.,24.0,0.,24.0
1986-01-24 02:03:45.430 ,5,0,0.,24.0,0.,24.0,0.,24.0,0.,24.0
1986-01-24 02:04:09.430 ,6,1,0.,24.0,0.,24.0,0.,24.0,0.,24.0
1986-01-24 02:04:33.420 ,6,0,0.,24.0,0.,24.0,0.,24.0,0.,24.0
1986-01-24 02:04:57.420 ,7,1,0.,24.0,0.,24.0,0.,24.0,0.,24.0
1986-01-24 02:05:21.420 ,7,0,0.,24.0,0.,24.0,0.,24.0,0.,24.0
1986-01-24 02:05:45.420 ,7,1,0.,24.0,0.,24.0,0.,24.0,0.,24.0
1986-01-24 02:06:09.420 ,7,0,0.,24.0,0.,24.0,0.,24.0,0.,24.0
1986-01-24 02:06:33.420 ,6,1,0.,24.0,0.,24.0,0.,24.0,0.,24.0
1986-01-24 02:06:57.420 ,6,0,0.,24.0,0.,24.0,0.,24.0,0.,24.0
1986-01-24 02:07:21.420 ,5,1,0.,24.0,0.,24.0,0.,24.0,0.,24.0
1986-01-24 02:07:45.420 ,5,0,0.,24.0,0.,24.0,0.,24.0,0.,24.0
1986-01-24 02:08:09.420 ,4,1,0.,24.0,0.,24.0,0.,24.0,0.,24.0
1986-01-24 02:08:33.420 ,4,0,0.,24.0,0.,24.0,0.,24.0,0.,24.0
1986-01-24 02:08:57.430 ,3,1,0.,24.0,0.,24.0,0.,24.0,0.,24.0
1986-01-24 02:09:21.430 ,3,0,0.,24.0,0.,24.0,0.,24.0,0.,24.0
1986-01-24 02:09:45.430 ,2,1,0.,24.0,0.,24.0,0.,24.0,0.,24.0
1986-01-24 02:10:09.430 ,2,0,0.,24.0,0.,24.0,0.,24.0,0.,24.0
1986-01-24 02:10:33.430 ,1,1,0.,24.0,0.,24.0,0.,24.0,0.,24.0
1986-01-24 02:10:57.430 ,1,0,0.,24.0,0.,24.0,0.,24.0,0.,24.0
1986-01-24 02:11:21.430 ,0,1,0.,24.0,0.,24.0,0.,24.0,0.,24.0
1986-01-24 02:11:45.430 ,0,0,0.,24.0,0.,24.0,0.,24.0,0.,24.0
1986-01-24 02:12:09.430 ,0,1,0.,24.0,0.,24.0,0.,24.0,0.,24.0
1986-01-24 02:12:33.430 ,0,0,0.,24.0,0.,24.0,0.,24.0,0.,24.0
1986-01-24 02:12:57.430 ,1,1,0.,24.0,0.,24.0,0.,24.0,0.,24.0
1986-01-24 02:13:21.430 ,1,0,0.,24.0,0.,24.0,0.,24.0,0.,24.0
1986-01-24 02:13:45.430 ,2,1,0.,24.0,0.,24.0,0.,24.0,0.,24.0
1986-01-24 02:14:09.430 ,2,0,0.,24.0,0.,24.0,0.,24.0,0.,24.0
1986-01-24 02:14:33.430 ,3,1,0.,24.0,0.,24.0,0.,24.0,0.,24.0
1986-01-24 02:14:57.430 ,3,0,0.,24.0,0.,24.0,0.,24.0,0.,24.0
1986-01-24 02:15:21.430 ,4,1,0.,24.0,0.,24.0,0.,24.0,0.,24.0
1986-01-24 02:15:45.430 ,4,0,0.,24.0,0.,24.0,0.,24.0,0.,24.0
1986-01-24 02:16:09.430 ,5,1,0.,24.0,0.,24.0,0.,24.0,0.,24.0
1986-01-24 02:16:33.430 ,5,0,0.,24.0,0.,24.0,0.,24.0,0.,24.0
1986-01-24 02:16:57.430 ,6,1,0.,24.0,0.,24.0,0.,24.0,0.,24.0
1986-01-24 02:17:21.430 ,6,0,0.,24.0,0.,24.0,0.,24.0,0.,24.0
1986-01-24 02:17:45.430 ,7,1,0.,24.0,0.,24.0,0.,24.0,0.,24.0
1986-01-24 02:18:09.430 ,7,0,0.,24.0,0.,24.0,0.,24.0,0.,24.0
1986-01-24 02:18:33.420 ,7,1,0.,24.0,0.,24.0,0.,24.0,0.,24.0
1986-01-24 02:18:57.420 ,7,0,0.,24.0,0.,24.0,0.,24.0,0.,24.0
1986-01-24 02:19:21.420 ,6,1,0.,24.0,0.,24.0,0.,24.0,0.,24.0
1986-01-24 02:19:45.420 ,6,0,0.,24.0,0.,24.0,0.,24.0,0.,24.0
1986-01-24 02:20:09.420 ,5,1,0.,24.0,0.,24.0,0.,24.0,0.,24.0
1986-01-24 02:20:33.420 ,5,0,0.,24.0,0.,24.0,0.,24.0,0.,24.0
1986-01-24 02:20:57.420 ,4,1,0.,24.0,0.,24.0,0.,24.0,0.,24.0
1986-01-24 02:21:21.420 ,4,0,0.,24.0,0.,24.0,0.,24.0,0.,24.0
1986-01-24 02:21:45.420 ,3,1,0.,24.0,0.,24.0,0.,24.0,0.,24.0
1986-01-24 02:22:09.420 ,3,0,0.,24.0,0.,24.0,0.,24.0,0.,24.0
1986-01-24 02:22:33.420 ,2,1,0.,24.0,0.,24.0,0.,24.0,0.,24.0
1986-01-24 02:22:57.420 ,2,0,0.,24.0,0.,24.0,0.,24.0,0.,24.0
1986-01-24 02:23:21.420 ,1,1,0.,24.0,0.,24.0,0.,24.0,0.,24.0
1986-01-24 02:23:45.420 ,1,0,0.,24.0,0.,24.0,0.,24.0,0.,24.0
1986-01-24 02:24:09.420 ,0,1,0.,24.0,0.,24.0,0.,24.0,0.,24.0
1986-01-24 02:24:33.420 ,0,0,0.,24.0,0.,24.0,0.,24.0,0.,24.0
1986-01-24 02:24:57.420 ,0,1,0.,24.0,0.,24.0,0.,24.0,0.,24.0
1986-01-24 02:25:45.420 ,1,1,0.,24.0,0.,24.0,0.,24.0,0.,24.0
1986-01-24 02:26:09.420 ,1,0,0.,24.0,0.,24.0,0.,24.0,0.,24.0
1986-01-24 02:26:33.420 ,2,1,0.,24.0,0.,24.0,0.,24.0,0.,24.0
1986-01-24 02:26:57.420 ,2,0,0.,24.0,0.,24.0,0.,24.0,0.,24.0
1986-01-24 02:27:21.420 ,3,1,0.,24.0,0.,24.0,0.,24.0,0.,24.0
1986-01-24 02:27:45.420 ,3,0,0.,24.0,0.,24.0,0.,24.0,0.,24.0
1986-01-24 02:28:09.420 ,4,1,0.,24.0,0.,24.0,0.,24.0,0.,24.0
1986-01-24 02:28:33.420 ,4,0,0.,24.0,0.,24.0,0.,24.0,0.,24.0
1986-01-24 02:28:57.420 ,5,1,0.,24.0,0.,24.0,0.,24.0,0.,24.0
1986-01-24 02:29:21.420 ,5,0,0.,24.0,0.,24.0,0.,24.0,0.,24.0
1986-01-24 02:29:45.420 ,6,1,0.,24.0,0.,24.0,0.,24.0,0.,24.0
1986-01-24 02:30:09.420 ,6,0,0.,24.0,0.,24.0,0.,24.0,0.,24.0
1986-01-24 02:30:33.420 ,7,1,0.,24.0,0.,24.0,0.,24.0,0.,24.0
1986-01-24 02:30:57.420 ,7,0,0.,24.0,0.,24.0,0.,24.0,0.,24.0
1986-01-24 02:31:21.420 ,7,1,0.,24.0,0.,24.0,0.,24.0,0.,24.0
1986-01-24 02:31:45.420 ,7,0,0.,24.0,0.,24.0,0.,24.0,0.,24.0
1986-01-24 02:32:09.420 ,6,1,0.,24.0,0.,24.0,0.,24.0,0.,24.0
1986-01-24 02:32:33.420 ,6,0,0.,24.0,0.,24.0,0.,24.0,0.,24.0
1986-01-24 02:32:57.420 ,5,1,0.,24.0,0.,24.0,0.,24.0,0.,24.0
1986-01-24 02:33:21.420 ,5,0,0.,24.0,0.,24.0,0.,24.0,0.,24.0
1986-01-24 02:33:45.420 ,4,1,0.,24.0,0.,24.0,0.,24.0,0.,24.0
1986-01-24 02:34:09.420 ,4,0,0.,24.0,0.,24.0,0.,24.0,0.,24.0
1986-01-24 02:34:33.420 ,3,1,0.,24.0,0.,24.0,0.,24.0,0.,24.0
1986-01-24 02:34:57.420 ,3,0,0.,24.0,0.,24.0,0.,24.0,0.,24.0
1986-01-24 02:35:21.420 ,2,1,0.,24.0,0.,24.0,0.,24.0,0.,24.0
1986-01-24 02:35:45.420 ,2,0,0.,24.0,0.,24.0,0.,24.0,0.,24.0
1986-01-24 02:36:09.420 ,1,1,0.,24.0,0.,24.0,0.,24.0,0.,24.0
1986-01-24 02:36:33.420 ,1,0,0.,24.0,0.,24.0,0.,24.0,0.,24.0
1986-01-24 02:36:57.420 ,0,1,0.,24.0,0.,24.0,0.,24.0,0.,24.0
1986-01-24 02:37:21.420 ,0,0,0.,24.0,0.,24.0,0.,24.0,0.,24.0
1986-01-24 02:37:45.420 ,0,1,0.,24.0,0.,24.0,0.,24.0,0.,24.0
1986-01-24 02:38:09.420 ,0,0,0.,24.0,0.,24.0,0.,24.0,0.,24.0
1986-01-24 02:38:33.420 ,1,1,0.,24.0,0.,24.0,0.,24.0,0.,24.0
1986-01-24 02:38:57.420 ,1,0,0.,24.0,0.,24.0,0.,24.0,0.,24.0
1986-01-24 02:39:21.420 ,2,1,0.,24.0,0.,24.0,0.,24.0,0.,24.0
1986-01-24 02:39:45.420 ,2,0,0.,24.0,0.,24.0,0.,24.0,0.,24.0
1986-01-24 02:40:09.420 ,3,1,0.,24.0,0.,24.0,0.,24.0,0.,24.0
1986-01-24 02:40:33.420 ,3,0,0.,24.0,0.,24.0,0.,24.0,0.,24.0